Weather History for Corpus Christi, TX

Change the Weather History Date:

Tuesday, March 18, 2014

  Actual Average Record
Temperature  
Mean Temperature 67 °F 66 °F  
Max Temperature 84 °F 76 °F 92 °F (1971)
Min Temperature 49 °F 57 °F 31 °F (1892)
Degree Days  
Heating Degree Days 0 2  
Month to date heating degree days 120 59  
Since 1 July heating degree days 1119 859  
Cooling Degree Days 2 4  
Month to date cooling degree days 19 56  
Year to date cooling degree days 96 132  
Growing Degree Days 15 (Base 50)    
Moisture  
Dew Point 53 °F    
Average Humidity 65    
Maximum Humidity 90    
Minimum Humidity 40    
Precipitation  
Precipitation 0.00 in 0.06 in 1.84 in (1888)
Month to date precipitation 1.43 1.13  
Year to date precipitation 2.34 4.60  
Snow  
Snow 0.00 in - - ()
Month to date snowfall 0.0  
Since 1 July snowfall T  
Snow Depth 0.00 in    
Sea Level Pressure  
Sea Level Pressure 29.79 in    
Wind  
Wind Speed 13 mph (SSE)    
Max Wind Speed 28 mph    
Max Gust Speed 35 mph    
Visibility 10 miles    
Events      
T = Trace of Precipitation, MM = Missing Value Source: NWS Daily Summary

Daily Weather History Graph

Daily Weather History Graph

Search for Another Location

Airport:

Trip Planner

Search our weather history database for the weather conditions in past years. The results will help you decide how hot, cold, wet, or windy it might be!

Date:

Astronomy

Mar. 18, 2014 Rise Set
Actual Time 7:36 AM CDT 7:40 PM CDT
Civil Twilight 7:12 AM CDT 8:03 PM CDT
Nautical Twilight 6:45 AM CDT 8:30 PM CDT
Astronomical Twilight 6:18 AM CDT 8:58 PM CDT
Moon 9:44 PM CDT (3/18) 8:37 AM CDT (3/18)
Length of Visible Light 12h 50m
Length of Day
12h 04m
Waning Gibbous, 96% of the Moon is Illuminated
Mar 18
Waning Gibbous
Mar 23
Last Quarter
Mar 30
New
Apr 7
First Quarter
Apr 15
Full

Hourly Weather History & Observations

Time (CDT) Temp. Heat Index Dew Point Humidity Pressure Visibility Wind Dir Wind Speed Gust Speed Precip Events Conditions
12:51 AM 51.8 °F - 46.4 °F 82% 29.84 in 10.0 mi SE 8.1 mph - N/A   Partly Cloudy
1:51 AM 52.0 °F - 46.9 °F 83% 29.83 in 10.0 mi South 10.4 mph - N/A   Clear
2:51 AM 53.1 °F - 46.9 °F 80% 29.83 in 10.0 mi South 10.4 mph - N/A   Clear
3:51 AM 52.0 °F - 46.0 °F 80% 29.82 in 10.0 mi South 9.2 mph - N/A   Clear
4:51 AM 48.9 °F - 45.0 °F 86% 29.80 in 10.0 mi SSE 9.2 mph - N/A   Clear
5:51 AM 50.0 °F - 46.9 °F 89% 29.78 in 10.0 mi SSE 8.1 mph - N/A   Clear
6:51 AM 51.1 °F - 48.0 °F 89% 29.78 in 10.0 mi SSE 8.1 mph - N/A   Clear
7:51 AM 52.0 °F - 48.9 °F 89% 29.79 in 10.0 mi SSE 8.1 mph - N/A   Clear
8:51 AM 59.0 °F - 54.0 °F 83% 29.80 in 10.0 mi South 11.5 mph - N/A   Clear
9:51 AM 66.9 °F - 54.0 °F 63% 29.81 in 10.0 mi South 20.7 mph 31.1 mph N/A   Clear
10:51 AM 71.1 °F - 54.0 °F 55% 29.81 in 10.0 mi South 21.9 mph 31.1 mph N/A   Clear
11:51 AM 75.0 °F - 54.0 °F 48% 29.80 in 10.0 mi South 19.6 mph 31.1 mph N/A   Clear
12:51 PM 79.0 °F - 53.1 °F 40% 29.78 in 10.0 mi South 23.0 mph 29.9 mph N/A   Clear
1:51 PM 82.0 °F 81.6 °F 55.9 °F 41% 29.75 in 10.0 mi South 17.3 mph 23.0 mph N/A   Clear
3:51 PM 81.0 °F 81.3 °F 59.0 °F 47% 29.70 in 10.0 mi SE 17.3 mph 23.0 mph N/A   Clear
4:51 PM 80.1 °F 80.7 °F 59.0 °F 48% 29.70 in 10.0 mi SSE 20.7 mph 27.6 mph N/A   Partly Cloudy
5:51 PM 75.9 °F - 57.9 °F 54% 29.70 in 10.0 mi SSE 23.0 mph 33.4 mph N/A   Partly Cloudy
6:51 PM 72.0 °F - 57.0 °F 59% 29.72 in 10.0 mi SSE 24.2 mph 33.4 mph N/A   Clear
7:51 PM 69.1 °F - 57.9 °F 68% 29.77 in 10.0 mi SSE 18.4 mph 27.6 mph N/A   Clear
8:51 PM 66.9 °F - 57.9 °F 73% 29.79 in 10.0 mi SSE 18.4 mph 26.5 mph N/A   Clear
9:51 PM 66.0 °F - 59.0 °F 78% 29.83 in 10.0 mi SSE 13.8 mph 23.0 mph N/A   Clear
10:51 PM 64.9 °F - 59.0 °F 81% 29.86 in 10.0 mi SSE 9.2 mph - N/A   Clear
11:51 PM 63.0 °F - 59.0 °F 87% 29.87 in 10.0 mi SSE 9.2 mph - N/A   Clear